Regional Weather Roundup
Issued by NWS

Home | Current Version | Previous Version | Graphics & Text | Print | Product List | Glossary On
Versions: 1 2 3 4 5 6 7 8 9 10 11 12 13 14 15 16 17 18 19 20 21 22 23 24 25 26 27 28 29 30 31 32 33 34 35 36 37 38 39 40 41 42 43 44 45 46 47 48 49 50
000
ASUS43 KMKX 191511
RWRWI

WISCONSIN REGIONAL WEATHER ROUNDUP
NATIONAL WEATHER SERVICE MILWAUKEE/SULLIVAN WI
1000 AM CDT SAT AUG 19 2017

NOTE: "FAIR" INDICATES FEW OR NO CLOUDS BELOW 12,000 FEET WITH NO
SIGNIFICANT WEATHER AND/OR OBSTRUCTIONS TO VISIBILITY.

WIZ001-002-006>008-014>016-023>028-191600-
NORTHWEST WISCONSIN

CITY           SKY/WX    TMP DP  RH WIND       PRES   REMARKS
SUPERIOR ARPT    N/A     68  63  83 SW6       29.90S
ASHLAND        SUNNY     71  61  70 W10       29.90R
HAYWARD        SUNNY     68  61  78 SW6       29.94S
SIREN          SUNNY     70  62  76 W5        29.94S
CUMBERLAND     SUNNY     68  61  77 W7        29.96S
RICE LAKE      SUNNY     69  66  92 W6        29.98R
CHETEK         SUNNY     69  63  83 W5        29.96S
LADYSMITH      SUNNY     69  62  79 W6        29.98R
EAU CLAIRE     SUNNY     69  62  78 W8        29.96R
MENOMONIE      SUNNY     70  63  79 SW5       29.97S
NEW RICHMOND   SUNNY     70  63  79 W6        29.97S
OSCEOLA        SUNNY     70  63  79 CALM      29.99S
$$

WIZ003>005-009-010-017-018-191600-
NORTH CENTRAL WISCONSIN

CITY           SKY/WX    TMP DP  RH WIND       PRES   REMARKS
MANITOWISH WTR SUNNY     68  63  85 SW5       29.93R
ARBOR VITAE    SUNNY     69  62  76 W5        29.93S
WOODRUFF       SUNNY     69  62  76 W5        29.93S
RHINELANDER    SUNNY     69  60  73 W9        29.95R
EAGLE RIVER    SUNNY     69  58  68 W7        29.93R
LAND O LAKES   SUNNY     69  59  71 W6        29.93S
PHILLIPS       SUNNY     67  61  82 SW7       29.94S
TOMAHAWK         N/A     68  58  70 W8        29.95S
MEDFORD        SUNNY     67  61  83 W10       29.97R
MERRILL        SUNNY     68  61  77 W3        29.95S
$$

WIZ029-030-035-036-043>047-191600-
CENTRAL WISCONSIN

CITY           SKY/WX    TMP DP  RH WIND       PRES   REMARKS
WAUSAU         SUNNY     69  60  73 W8        29.94S
MOSINEE        SUNNY     70  63  78 W6        29.96S
MARSHFIELD     SUNNY     70  61  73 W7        29.96S
STEVENS POINT  SUNNY     68  62  79 W5        29.96S
WAUPACA        SUNNY     75  59  58 W3        29.95R
WAUTOMA        SUNNY     73  64  73 W8        29.96S
WISC RAPIDS    SUNNY     70  63  78 NW5       29.97S
CAMP DOUGLAS   SUNNY     70  70 100 CALM      29.97R
$$

WIZ011>013-019>022-031-037>040-048>050-191600-
NORTHEAST WISCONSIN

CITY           SKY/WX    TMP DP  RH WIND       PRES   REMARKS
ANTIGO         SUNNY     68  61  78 W5        29.95S
SHAWANO        SUNNY     73  63  70 W7        29.92S
OCONTO         SUNNY     70  62  75 W8        29.90S
STURGEON BAY   SUNNY     68  62  81 W10       29.91S
GREEN BAY      SUNNY     71  66  84 W6        29.92S
MANITOWOC      PTSUNNY   68  62  81 W10       29.93S
APPLETON       MOSUNNY   70  64  83 SW8       29.93S
CLINTONVILLE   SUNNY     70  61  73 W8        29.93S
OSHKOSH        MOSUNNY   69  63  81 W6        29.94S
$$

WIZ032>034-041-042-053>061-191600-
SOUTHWEST WISCONSIN

CITY           SKY/WX    TMP DP  RH WIND       PRES   REMARKS
LA CROSSE      MOSUNNY   67  62  84 S3        29.99R
SPARTA         SUNNY     64  60  88 CALM      29.98R
VIROQUA        SUNNY     70  62  76 CALM      30.00R
BOSCOBEL       PTSUNNY   63  62  97 CALM      29.99R FOG
PRAIRIE DU CHI MOSUNNY   64  62  96 CALM      29.99R
PLATTEVILLE    SUNNY     69  68  96 CALM      30.00R
$$

WIZ056-057-062-063-064-067-068-191600-
SOUTH CENTRAL WISCONSIN

CITY           SKY/WX    TMP DP  RH WIND       PRES   REMARKS
REEDSBURG      SUNNY     70  63  79 CALM      29.97R
BARABOO/DELLS  SUNNY     70  59  67 CALM      29.97S
LONE ROCK      MOSUNNY   66  64  93 CALM      29.98S
MINERAL POINT  SUNNY     72  64  78 E3        29.99R
MADISON        MOSUNNY   71  63  75 CALM      29.97R
MIDDLETON      SUNNY     72  65  79 CALM      29.98S
WATERTOWN      CLOUDY    66  66  99 N5        29.97R
MONROE         SUNNY     70  63  78 N3        29.98S
JANESVILLE     SUNNY     72  63  73 CALM      29.97R
$$

WIZ051-052-058>065-066-070>072-191600-
SOUTHEAST WISCONSIN

CITY           SKY/WX    TMP DP  RH WIND       PRES   REMARKS
MILWAUKEE      SUNNY     73  61  65 W5        29.96R
WAUKESHA       PTSUNNY   66  61  82 NW3       29.98R
MILWAUKEE/TIMM SUNNY     72  61  68 W3        29.97R
RACINE         SUNNY     73  62  68 CALM      29.98R
KENOSHA        SUNNY     73  62  68 CALM      29.97R
FOND DU LAC    MOSUNNY   70  63  78 VRB3      29.95F
SHEBOYGAN      MOSUNNY   71  65  81 NW6       29.94S
WEST BEND      PTSUNNY   68  63  83 NW7       29.96S
JUNEAU         MOSUNNY   68  63  85 N5        29.97S
$$

LSZ147-162-191600-
LAKE SUPERIOR

STATION/POSITION TIME  TEMP    WIND        PRES    WAVE
                       AIR SEA DIR/SP/G            HT/PER
                 (UTC) (F)     (DEG/KT/KT) (MB)    (FT/S)
W MID LAKE BUOY  1450   60 59  240/ 12/ 14 1010.6R   2/ 4
DEVILS ISLAND    1500   62     240/ 16/ 18 1011.6R
SAXON HARBOR     1440   71     170/  1/  7 1011.5S
$$

LMZ867-665-643>646-191600-
LAKE MICHIGAN

STATION/POSITION TIME  TEMP    WIND        PRES    WAVE
                       AIR SEA DIR/SP/G            HT/PER
                 (UTC) (F)     (DEG/KT/KT) (MB)    (FT/S)
S GREEN BAY BUOY 1500   67 70  220/  6/ 10 1012.4
N MID LAKE BUOY  1450   66 66  230/ 10/ 12 1011.9R   1/ 3
NORTHPORT PIER   1440   68     270/  5/ 10 1011.9R
KEWAUNEE LAKESHO 1442   65     280/  8/ 12 1012.2R
SHEBOYGAN LAKESH 1500   69     290/  8/ 10 1013.4R
PORT WASHINGTON  1430   71     290/  6/  9 1014.9R
ATWATER BUOY     1409   68 70   60/  2/  6 1014.3R
MILWAUKEE LAKESH 1450   69     190/  3/  4   N/A
S MID LAKE BUOY  1450   68 71  330/  4/  4 1014.2R   1/ 3
KENOSHA   LAKESH 1500   70     120/  4/  4 1014.6
$$

TC  - TEMPERATURE IN CELSIUS
VSB - VISIBILITY IN STATUTE MILES
WCI - WIND CHILL INDEX
HX  - HEAT INDEX





USA.gov is the U.S. government's official web portal to all federal, state and local government web resources and services.